Kars, Turkey

9:02 PM EEST on July 23, 2016 (GMT +0300)
Kars

Weather History for LTCF - June, 2013

Change the Weather History Date:

Saturday, June 15, 2013

  Actual Average Record
Temperature  
Mean Temperature 62 °F -  
Max Temperature 77 °F 73 °F - ()
Min Temperature 48 °F 46 °F - ()
Degree Days  
Heating Degree Days 2    
Growing Degree Days 12 (Base 50)    
Moisture  
Dew Point 51 °F    
Average Humidity 63    
Maximum Humidity 100    
Minimum Humidity 25    
Precipitation  
Precipitation 0.00 in 0.08 in - ()
Sea Level Pressure  
Sea Level Pressure 30.03 in    
Wind  
Wind Speed 9 mph ()    
Max Wind Speed 21 mph    
Max Gust Speed 28 mph    
Visibility 6.1 miles    
Events      
T = Trace of Precipitation, MM = Missing Value Source: Averaged Metar Reports

Daily Weather History Graph

Daily Weather History Graph

Search for Another Location

Airport or City:

Trip Planner

Search our weather history database for the weather conditions in past years. The results will help you decide how hot, cold, wet, or windy it might be!

Date:

Astronomy

Jun. 15, 2013 Rise Set
Actual Time 4:36 AM EEST 7:40 PM EEST
Civil Twilight 4:03 AM EEST 8:13 PM EEST
Nautical Twilight 3:20 AM EEST 8:55 PM EEST
Astronomical Twilight 2:31 AM EEST 9:45 PM EEST
Moon 10:50 AM EEST (6/15) 11:32 PM EEST (6/15)
Length of Visible Light 16h 10m
Length of Day
15h 03m
Waxing Crescent, 36% of the Moon is Illuminated
Jun 15
Waxing Crescent
Jun 16
First Quarter
Jun 23
Full
Jun 30
Last Quarter
Jul 8
New

Hourly Weather History & Observations

Time (EEST) Temp. Dew Point Humidity Pressure Visibility Wind Dir Wind Speed Gust Speed Precip Events Conditions
12:50 AM 55.4 °F 50.0 °F 82% 30.04 in - NNE 12.7 mph - N/A   Clear
1:50 AM 53.6 °F 48.2 °F 82% 30.06 in - NE 9.2 mph - N/A   Clear
3:00 AM 49 °F 49 °F 100%  in 6 mi East 1.2 mph - -  
3:50 AM 51.8 °F 50.0 °F 94% 30.06 in - Calm Calm - N/A   Clear
4:50 AM 48.2 °F 48.2 °F 100% 30.06 in - NW 1.2 mph - N/A   Clear
5:50 AM 51.8 °F 50.0 °F 94% 30.06 in - Calm Calm - N/A   Clear
6:50 AM 57.2 °F 53.6 °F 88% 30.06 in - Calm Calm - N/A   Clear
7:50 AM 62.6 °F 53.6 °F 72% 30.06 in - Calm Calm - N/A   Clear
8:50 AM 66.2 °F 53.6 °F 64% 30.06 in - NNE 11.5 mph - N/A   Clear
9:00 AM 66 °F 53 °F 53%  in 6 mi NNE 11.5 mph - -  
9:50 AM 69.8 °F 55.4 °F 60% 30.06 in - East 11.5 mph - N/A   Clear
10:50 AM 73.4 °F 53.6 °F 50% 30.06 in - SE 6.9 mph - N/A   Clear
11:50 AM 75.2 °F 51.8 °F 44% 30.04 in - SE 16.1 mph - N/A   Clear
12:50 PM 75.2 °F 51.8 °F 44% 30.04 in - ESE 19.6 mph - N/A   Clear
1:50 PM 77.0 °F 48.2 °F 36% 30.01 in - ESE 18.4 mph - N/A   Clear
2:50 PM 77.0 °F 48.2 °F 36% 30.01 in - ESE 18.4 mph - N/A   Clear
3:00 PM 77 °F 48 °F 25%  in 6 mi ESE 18.4 mph - -  
3:50 PM 77.0 °F 48.2 °F 36% 30.01 in - ESE 17.3 mph - N/A   Clear
4:50 PM 77.0 °F 46.4 °F 34% 29.98 in - ESE 16.1 mph - N/A   Clear
5:50 PM 71.6 °F 57.2 °F 60% 29.98 in 6.2 mi East 20.7 mph - N/A   Partly Cloudy
6:50 PM 68.0 °F 57.2 °F 68% 29.98 in 6.2 mi East 19.6 mph - N/A   Partly Cloudy
8:20 PM 62.6 °F 53.6 °F 72% 29.98 in - NNW 11.5 mph - N/A   Clear
8:50 PM 62.6 °F 51.8 °F 68% 30.01 in - NE 13.8 mph - N/A   Clear
9:00 PM 62 °F 51 °F 58%  in 6 mi NE 13.8 mph - -  
9:50 PM 62.6 °F 48.2 °F 59% 30.04 in - ENE 12.7 mph 27.6 mph N/A   Clear
10:50 PM 59.0 °F 46.4 °F 63% 30.01 in - NE 12.7 mph - N/A   Clear
11:50 PM 57.2 °F 46.4 °F 67% 30.01 in - NE 11.5 mph - N/A   Clear